Weather History for Frederick, MD

Change the Weather History Date:

Monday, April 29, 2013

  Actual Average (KHGR) Record (KHGR)
Temperature  
Mean Temperature 55 °F -  
Max Temperature 60 °F 66 °F 78 °F (2004)
Min Temperature 50 °F 45 °F 36 °F (2012)
Degree Days  
Heating Degree Days 10    
Growing Degree Days 5 (Base 50)    
Moisture  
Dew Point 52 °F    
Average Humidity 95    
Maximum Humidity 100    
Minimum Humidity 77    
Precipitation  
Precipitation 0.05 in - - ()
Sea Level Pressure  
Sea Level Pressure 30.13 in    
Wind  
Wind Speed 3 mph (ESE)    
Max Wind Speed 7 mph    
Max Gust Speed -    
Visibility 7 miles    
Events Rain    
Averages and records for this station are not official NWS values.
T = Trace of Precipitation, MM = Missing Value Source: NWS Daily Summary

Daily Weather History Graph

Daily Weather History Graph

Search for Another Location

Airport:

Trip Planner

Search our weather history database for the weather conditions in past years. The results will help you decide how hot, cold, wet, or windy it might be!

Date:

Astronomy

Apr. 29, 2013 Rise Set
Actual Time 6:12 AM EDT 8:01 PM EDT
Civil Twilight 5:44 AM EDT 8:30 PM EDT
Nautical Twilight 5:09 AM EDT 9:05 PM EDT
Astronomical Twilight 4:31 AM EDT 9:43 PM EDT
Moon No Moon Rise 9:31 AM EDT (4/29)
Length of Visible Light 14h 46m
Length of Day
13h 48m
Waning Gibbous, 80% of the Moon is Illuminated
Apr 29
Waning Gibbous
May 2
Last Quarter
May 9
New
May 18
First Quarter
May 25
Full

Hourly Weather History & Observations

Time (EDT) Temp. Dew Point Humidity Pressure Visibility Wind Dir Wind Speed Gust Speed Precip Events Conditions
12:10 AM 53.6 °F 46.4 °F 77% 30.17 in 10.0 mi SSE 4.6 mph - N/A   Overcast
12:30 AM 53.6 °F 46.4 °F 77% 30.18 in 10.0 mi South 3.5 mph - N/A Rain Light Rain
12:50 AM 53.6 °F 46.4 °F 77% 30.17 in 10.0 mi SE 4.6 mph - N/A   Light Drizzle
1:10 AM 53.6 °F 46.4 °F 77% 30.17 in 10.0 mi SSE 4.6 mph - N/A   Drizzle
1:30 AM 53.6 °F 46.4 °F 77% 30.17 in 10.0 mi Calm Calm - N/A   Drizzle
1:50 AM 51.8 °F 48.2 °F 88% 30.17 in 10.0 mi SE 3.5 mph - N/A   Drizzle
2:10 AM 51.8 °F 48.2 °F 88% 30.16 in 10.0 mi SSE 3.5 mph - N/A   Drizzle
2:30 AM 51.8 °F 50.0 °F 94% 30.15 in 10.0 mi Calm Calm - N/A   Light Drizzle
2:50 AM 51.8 °F 50.0 °F 94% 30.15 in 10.0 mi SE 3.5 mph - N/A   Light Drizzle
3:10 AM 50.0 °F 50.0 °F 100% 30.14 in 7.0 mi ESE 3.5 mph - 0.01 in Rain Rain
3:30 AM 50.0 °F 50.0 °F 100% 30.14 in 10.0 mi East 3.5 mph - 0.01 in   Drizzle
3:50 AM 50.0 °F 50.0 °F 100% 30.13 in 10.0 mi Calm Calm - 0.01 in   Overcast
4:10 AM 50.0 °F 50.0 °F 100% 30.13 in 10.0 mi Calm Calm - N/A   Overcast
4:30 AM 50.0 °F 50.0 °F 100% 30.13 in 10.0 mi Calm Calm - N/A   Overcast
4:50 AM 51.8 °F 50.0 °F 94% 30.13 in 10.0 mi Calm Calm - N/A   Overcast
5:10 AM 51.8 °F 51.8 °F 100% 30.12 in 7.0 mi Calm Calm - N/A Rain Rain
5:30 AM 51.8 °F 51.8 °F 100% 30.12 in 5.0 mi SE 3.5 mph - 0.01 in Rain Light Rain
5:50 AM 51.8 °F 51.8 °F 100% 30.12 in 5.0 mi ESE 3.5 mph - 0.04 in Rain Rain
6:10 AM 51.8 °F 51.8 °F 100% 30.12 in 5.0 mi Calm Calm - N/A   Overcast
6:30 AM 51.8 °F 51.8 °F 100% 30.13 in 5.0 mi Calm Calm - N/A   Overcast
6:45 AM 51.8 °F 51.8 °F 100% 30.13 in 5.0 mi Calm Calm - N/A   Overcast
6:50 AM 51.8 °F 51.8 °F 100% 30.13 in 3.0 mi Calm Calm - N/A Rain Light Rain
7:50 AM 53.6 °F 53.6 °F 100% 30.14 in 3.0 mi Calm Calm - N/A Rain Light Rain
8:47 AM 53.6 °F 53.6 °F 100% 30.14 in 3.0 mi Calm Calm - N/A Rain Light Rain
9:47 AM 53.6 °F 53.6 °F 100% 30.13 in 2.5 mi Calm Calm - N/A Rain Light Rain
10:50 AM 53.6 °F 53.6 °F 100% 30.13 in 1.8 mi NNE 3.5 mph - N/A Rain Light Rain
11:47 AM 55.4 °F 55.4 °F 100% 30.12 in 3.0 mi Calm Calm - N/A Rain Light Rain
12:48 PM 55.4 °F 55.4 °F 100% 30.11 in 3.0 mi North 3.5 mph - N/A   Overcast
1:59 PM 57.2 °F 57.2 °F 100% 30.09 in 20.0 mi North 4.6 mph - N/A   Clear
2:56 PM 60.8 °F 59.0 °F 94% 30.08 in 4.0 mi NW 3.5 mph - N/A   Overcast
3:45 PM 59.0 °F 59.0 °F 100% 30.08 in 2.0 mi SSE 3.5 mph - N/A   Overcast
5:54 PM 60.8 °F 57.2 °F 88% 30.08 in 10.0 mi SE 5.8 mph - N/A   Overcast
6:58 PM 59.0 °F 57.2 °F 94% 30.09 in 10.0 mi SE 5.8 mph - N/A   Overcast
7:50 PM 57.2 °F 55.4 °F 94% 30.10 in 10.0 mi SE 6.9 mph - N/A   Overcast
8:55 PM 55.4 °F 55.4 °F 100% 30.12 in 10.0 mi ESE 6.9 mph - N/A   Overcast
9:15 PM 55.4 °F 53.6 °F 94% 30.13 in 10.0 mi SE 6.9 mph - N/A   Overcast
9:35 PM 55.4 °F 53.6 °F 94% 30.14 in 10.0 mi SE 6.9 mph - N/A   Overcast
9:55 PM 53.6 °F 53.6 °F 100% 30.15 in 5.0 mi Calm Calm - N/A   Overcast
10:15 PM 53.6 °F 53.6 °F 100% 30.14 in 5.0 mi Calm Calm - N/A   Overcast
10:35 PM 53.6 °F 53.6 °F 100% 30.15 in 3.0 mi Calm Calm - N/A Rain Light Rain
10:55 PM 53.6 °F 53.6 °F 100% 30.15 in 5.0 mi East 3.5 mph - N/A   Overcast
11:15 PM 53.6 °F 53.6 °F 100% 30.15 in 4.0 mi Calm Calm - N/A   Overcast
11:35 PM 53.6 °F 53.6 °F 100% 30.15 in 5.0 mi Calm Calm - N/A   Overcast
11:55 PM 53.6 °F 53.6 °F 100% 30.15 in 4.0 mi NNE 3.5 mph - N/A   Overcast